This is the latest recevied weather packets stored in our database for station/object N2RDT. If no packets are shown the sender has not sent any weather packets the latest 10 day(s).
| Time | Temp. | Humidity | Pressure | Rain* | Wind** | Luminosity | Snow |
|---|---|---|---|---|---|---|---|
| 1777567752 | 17.78° C | 70% | 1011 hPa | 0 mm | - | 269 W/m² | - |
| 1777566844 | 17.78° C | 71% | 1011.1 hPa | 0 mm | - | 426 W/m² | - |
| 1777566239 | 17.22° C | 70% | 1011.2 hPa | 0 mm | - | 296 W/m² | - |
| 1777565936 | 17.22° C | 72% | 1011.1 hPa | 0 mm | - | 272 W/m² | - |
| 1777565631 | 17.22° C | 72% | 1011.4 hPa | 0 mm | - | 272 W/m² | - |
| 1777565024 | 17.22° C | 71% | 1011 hPa | 0 mm | - | 220 W/m² | - |
| 1777563504 | 16.67° C | 73% | 1010.8 hPa | 0 mm | - | 237 W/m² | - |
| 1777563203 | 16.67° C | 74% | 1010.9 hPa | 0 mm | - | 183 W/m² | - |
| 1777562900 | 16.67° C | 74% | 1011.2 hPa | 0 mm | - | 173 W/m² | - |
| 1777562596 | 16.67° C | 74% | 1011 hPa | 0 mm | - | 209 W/m² | - |
| 1777562295 | 16.67° C | 73% | 1011 hPa | 0 mm | - | 208 W/m² | - |
| 1777561384 | 16.67° C | 75% | 1010.8 hPa | 0 mm | - | 299 W/m² | - |
| 1777560473 | 16.67° C | 74% | 1010.6 hPa | 0 mm | - | 338 W/m² | - |
| 1777558044 | 15.56° C | 82% | 1010.1 hPa | 0 mm | - | 223 W/m² | - |
| 1777557437 | 15.56° C | 83% | 1009.9 hPa | 0 mm | - | 167 W/m² | - |
| 1777557134 | 15.56° C | 83% | 1010.1 hPa | 0 mm | - | 167 W/m² | - |
| 1777556829 | 15.56° C | 81% | 1010 hPa | 0 mm | - | 151 W/m² | - |
| 1777555921 | 15.56° C | 82% | 1010.4 hPa | 0 mm | - | 188 W/m² | - |
| 1777554101 | 14.44° C | 85% | 1010.5 hPa | 0 mm | - | 100 W/m² | - |
| 1777552283 | 14.44° C | 86% | 1010.2 hPa | 0 mm | - | 63 W/m² | - |
| 1777551980 | 14.44° C | 86% | 1010.2 hPa | 0 mm | - | 75 W/m² | - |
| 1777551677 | 13.89° C | 90% | 1010.4 hPa | 0 mm | - | 51 W/m² | - |
| 1777551071 | 13.89° C | 90% | 1010 hPa | 0 mm | - | 51 W/m² | - |
| 1777550768 | 13.89° C | 90% | 1010 hPa | 0 mm | - | 51 W/m² | - |
| 1777550160 | 13.89° C | 90% | 1010.1 hPa | 0 mm | - | 51 W/m² | - |
* Rain latest hour (hover to see other rain measurements)
** Current wind speed in m/s (hover to see current wind gust speed)